Theta_e
313 312 311 312 310 315 316 316 316 315 315 315 314 314 314 314 314 313 313 314 314 315 317 314 314 314 313 313 312 311 310 309 304 310 312 311 310 309 309 308 307 306 306 306
312 311 311 311 312 313 313 315 314 314 312 313 313 314 314 314 313 314 315 315 314 314 315 314 313 313 313 313 312 311 310 307 305 312 311 312 311 310 309 307 307 306 306 307
312 314 312 312 314 314 313 314 313 316 315 312 311 312 313 314 315 314 313 314 313 315 314 313 313 313 312 312 312 310 309 304 308 313 311 313 312 310 309 307 308 307 307 308
312 312 313 313 314 313 315 313 313 316 315 314 311 315 308 312 312 314 315 313 313 314 313 313 313 312 312 312 311 310 308 303 310 313 311 313 310 309 308 309 311 310 310 312
311 312 312 313 314 312 314 313 314 314 313 312 311 309 312 311 315 315 314 313 313 312 313 313 313 313 312 312 311 309 305 304 310 313 311 314 310 309 309 310 313 315 312 312
309 310 310 310 310 311 310 311 310 309 309 309 309 311 312 311 315 316 312 312 313 312 312 312 312 312 312 311 309 308 304 305 310 313 312 314 311 309 309 311 315 315 314 313
310 310 309 309 311 310 311 311 309 309 308 314 311 310 312 312 312 312 311 312 313 312 312 312 311 311 311 311 309 307 303 307 311 313 312 314 311 310 310 311 315 315 316 313
310 309 309 308 310 311 309 310 310 310 315 316 310 314 315 310 310 310 311 311 313 312 311 311 311 311 311 310 309 305 303 307 311 312 312 314 312 310 311 314 315 316 316 317
309 309 308 308 308 310 311 311 310 310 302 308 309 308 309 309 309 309 311 311 311 311 311 311 311 311 310 309 308 304 303 307 310 312 312 313 313 312 313 315 314 314 314 315
311 312 308 307 308 308 310 308 310 307 309 312 311 310 312 312 311 309 307 309 311 310 310 310 310 310 309 308 307 303 303 306 309 311 313 312 314 313 313 313 314 314 316 317
309 312 309 308 308 309 309 309 309 309 309 314 315 314 308 308 306 306 306 309 311 311 310 310 310 310 309 308 306 303 303 304 308 310 312 313 312 314 314 315 315 316 315 316
311 314 308 308 307 306 308 309 308 311 311 309 313 312 307 305 304 305 306 309 310 311 310 310 309 309 308 307 306 304 303 303 306 309 311 311 313 312 313 313 316 315 315 315
311 311 314 314 312 307 307 307 308 308 308 311 312 313 305 304 305 304 303 305 309 310 311 310 309 309 308 307 306 305 303 303 304 308 310 311 311 313 312 312 312 315 315 315
311 311 312 313 311 308 308 307 307 309 310 311 311 313 306 304 303 301 300 302 304 306 308 310 310 310 309 308 307 306 305 304 304 305 309 310 311 311 312 312 312 313 314 314
307 311 308 309 309 309 308 308 307 309 309 310 311 310 303 301 301 298 298 299 299 300 302 303 305 307 308 309 308 307 306 305 303 304 305 308 310 311 311 312 311 311 313 313
305 310 308 306 310 310 312 310 308 307 308 308 308 307 298 299 298 295 296 295 295 295 297 299 302 303 305 306 307 308 307 306 304 303 304 305 308 311 311 311 312 311 312 312
307 307 308 310 307 310 311 309 311 309 301 302 307 301 296 297 297 294 294 293 292 293 294 296 298 300 301 304 306 307 306 306 305 304 304 304 305 307 310 311 311 311 310 310
303 306 308 310 306 313 304 297 301 300 296 296 297 295 294 294 295 292 292 292 291 292 293 294 295 297 299 300 303 305 306 306 305 304 303 303 304 305 307 310 310 310 309 309
300 304 307 305 303 308 305 297 298 300 295 294 294 294 293 293 295 295 292 291 291 291 292 293 294 294 296 298 300 302 304 305 304 303 303 303 303 304 304 306 309 310 308 308
301 301 305 305 309 311 297 295 295 296 297 292 293 292 293 294 297 293 291 291 291 291 292 293 294 295 296 297 297 299 301 302 302 302 301 302 302 303 304 304 305 308 308 308
296 300 303 303 307 298 294 293 295 302 295 292 291 291 292 292 292 291 291 290 290 290 291 292 293 293 294 295 296 296 297 298 299 300 300 301 301 302 303 304 304 306 308 308
293 291 293 293 299 299 292 293 294 293 291 290 290 290 290 291 290 290 289 289 289 289 291 292 293 293 292 293 295 296 296 296 296 297 298 299 300 301 302 302 303 304 305 307
291 288 289 295 294 292 292 293 291 290 290 290 291 289 288 287 288 287 287 286 286 286 287 289 290 292 293 292 292 293 294 295 296 296 297 297 298 299 300 301 302 302 304 305
285 290 286 287 288 290 292 291 291 289 289 290 288 287 285 285 285 284 284 284 283 284 285 285 287 289 291 291 291 290 292 294 295 295 296 296 296 297 298 299 300 301 302 303
286 287 285 286 290 292 291 291 289 287 288 287 286 284 284 283 283 283 282 282 282 281 282 283 283 284 286 288 290 289 289 291 294 295 295 295 295 296 296 298 299 300 301 302
288 287 285 285 290 290 290 290 287 286 286 286 285 283 282 282 281 281 282 281 281 281 281 281 282 282 283 284 286 288 288 289 290 294 295 294 293 294 295 295 297 298 299 300
Wind_Speed
5 3 9 14 9 2 3 3 4 4 3 3 7 15 18 19 23 24 29 29 22 22 22 24 24 23 25 23 19 16 12 9 7 5 4 4 3 3 4 6 6 4 5 8
4 8 8 5 5 6 5 4 6 5 1 3 5 15 19 18 14 16 15 13 9 11 18 25 27 27 26 21 18 15 12 8 5 2 3 2 3 4 5 8 7 8 8 10
7 4 4 9 5 7 5 7 4 6 2 4 6 8 6 5 7 10 7 8 7 9 19 29 32 29 25 21 17 14 11 7 3 3 4 2 3 2 5 10 12 12 13 16
5 6 2 4 5 7 5 5 5 4 2 3 3 6 6 7 11 5 10 10 7 5 18 31 34 30 25 20 16 14 10 7 4 5 4 1 1 5 10 13 15 15 18 21
8 4 6 6 6 8 6 2 3 3 2 2 2 2 8 4 10 7 4 10 8 6 17 31 32 27 22 18 16 14 10 7 6 6 6 3 5 9 12 14 14 13 15 16
6 1 3 7 3 2 5 5 6 5 2 2 5 5 6 4 5 3 2 7 10 11 17 25 27 25 21 18 17 14 11 8 8 8 7 5 7 11 13 15 13 11 12 17
1 2 1 3 5 4 3 6 2 3 2 5 1 3 10 7 7 6 6 11 13 13 17 25 29 27 22 19 18 15 12 9 9 9 10 8 9 13 15 14 12 13 13 16
7 4 9 6 6 8 7 8 5 6 4 3 2 6 7 7 5 5 7 12 13 14 17 24 28 26 22 20 19 16 12 10 11 10 12 11 11 14 16 16 13 12 12 12
6 5 0 1 3 6 6 5 4 5 2 3 4 6 10 2 2 4 5 5 11 14 17 23 24 23 21 22 19 15 12 11 12 12 13 14 14 14 18 17 16 12 10 10
3 2 2 1 2 1 4 5 3 2 2 4 3 4 6 6 7 6 7 11 11 12 15 21 22 21 21 20 18 16 13 11 11 14 14 15 16 17 17 17 14 14 13 11
3 1 1 2 6 7 3 3 3 4 5 5 2 5 4 5 6 8 8 12 13 13 16 19 20 19 19 20 19 16 15 13 13 14 16 16 18 18 21 19 17 16 16 15
1 2 3 7 2 3 2 6 7 4 4 3 3 5 3 6 7 9 14 13 9 11 12 15 15 17 19 20 20 18 16 15 13 13 17 18 18 21 21 20 22 19 18 19
8 4 3 1 3 1 5 5 4 3 2 6 6 4 7 9 16 25 24 30 18 5 8 12 14 17 19 21 21 20 18 16 14 15 16 19 20 21 22 21 22 23 20 22
4 4 3 5 2 3 4 4 7 6 4 4 7 3 8 15 16 20 28 30 29 25 13 11 13 16 18 20 21 22 21 19 17 17 17 18 20 21 21 21 23 23 22 23
2 3 3 5 5 5 1 4 6 14 16 7 4 7 7 10 11 17 21 28 32 30 25 20 14 17 21 21 23 24 24 23 21 21 20 18 17 20 22 24 24 24 26 25
1 1 1 3 8 8 10 8 5 5 7 13 13 6 5 9 15 22 25 27 29 31 28 26 20 16 12 16 25 26 26 26 26 26 24 19 19 20 23 24 25 27 26 28
2 1 0 3 3 4 5 12 13 5 5 3 6 4 6 6 13 19 20 23 23 28 29 28 25 21 18 15 15 19 23 25 28 30 28 24 22 23 23 25 26 28 29 29
3 2 1 2 3 4 4 4 1 13 10 9 7 9 9 9 5 20 20 21 23 27 28 28 25 22 20 18 14 13 17 17 22 28 29 28 27 27 24 26 27 28 30 32
9 3 2 2 3 1 2 6 4 4 5 8 8 9 12 20 7 9 22 21 22 25 26 27 25 23 22 21 18 15 12 12 13 19 25 28 30 30 28 29 29 29 29 32
7 10 4 2 3 3 4 8 6 7 2 6 9 11 15 19 4 3 18 18 20 22 24 26 26 25 23 22 21 17 13 10 12 16 21 24 27 30 32 31 30 29 29 29
3 1 8 8 3 3 8 12 4 5 2 2 4 6 10 6 4 12 16 18 20 22 23 23 23 25 26 24 22 20 17 14 15 17 20 22 24 26 28 30 31 31 30 30
1 2 1 3 1 3 12 3 3 2 2 3 5 6 7 8 10 12 16 19 22 25 25 24 25 23 23 24 23 22 20 19 18 19 21 23 22 23 23 27 30 32 32 31
1 3 2 1 2 2 4 11 8 4 1 4 5 7 10 12 12 15 17 20 23 23 25 27 27 25 21 22 23 24 22 22 22 20 20 20 22 23 24 24 27 31 33 34
4 2 1 4 3 5 6 7 4 1 5 7 7 8 12 14 16 18 19 22 23 23 23 25 27 28 27 24 21 22 24 23 22 22 21 20 19 20 22 24 24 28 33 35
5 1 3 4 0 4 9 7 4 7 8 8 8 12 13 15 16 16 18 20 21 22 23 24 25 26 28 29 26 23 24 24 22 22 22 21 20 19 20 23 24 26 29 34
6 5 3 4 4 2 3 9 9 8 7 9 15 15 12 11 12 15 16 18 21 24 25 25 24 26 27 27 27 28 25 25 24 21 21 22 23 21 19 22 25 27 28 31
Wind_Direction
180 129 205 202 199 125 148 192 246 281 249 202 238 269 280 281 273 279 274 279 275 255 239 221 214 214 209 213 224 235 245 262 296 307 311 343 24 14 0 8 23 67 114 120
82 232 216 198 214 239 282 277 262 273 231 220 286 277 283 280 264 267 279 290 279 245 226 210 203 204 207 216 221 231 237 256 285 252 240 272 15 34 46 49 79 106 122 125
171 230 173 184 188 198 223 212 225 228 323 272 323 289 323 292 274 275 256 263 270 255 213 197 192 198 204 213 221 225 231 250 249 209 217 235 9 72 91 91 99 107 114 123
241 253 190 168 217 161 229 214 195 190 107 228 12 285 300 289 301 272 264 242 257 240 205 195 191 195 204 211 218 217 226 240 213 200 211 167 85 142 122 114 110 113 126 134
232 192 192 190 207 165 226 89 176 155 115 8 327 77 268 321 296 306 291 228 221 214 207 196 194 199 201 212 215 213 222 230 204 196 198 168 137 134 137 134 124 123 143 154
221 38 189 195 108 175 139 83 37 42 83 347 232 157 288 244 216 271 291 237 220 205 197 199 195 197 203 208 210 211 221 219 202 194 184 165 144 150 149 147 140 136 148 162
113 225 305 157 86 38 103 92 302 346 357 220 318 94 246 267 271 253 256 234 221 210 200 194 195 198 205 211 207 211 219 212 202 193 183 172 158 164 158 159 158 143 141 160
157 263 176 193 177 178 191 167 166 208 204 255 34 227 251 230 278 313 292 262 221 216 208 200 201 206 212 212 207 212 217 210 204 196 188 184 176 171 172 166 164 153 150 156
167 253 323 135 155 159 195 194 176 100 37 56 228 277 299 344 316 312 291 229 211 214 212 200 201 210 214 207 209 216 217 212 209 201 194 194 184 180 180 178 177 172 173 178
202 233 350 168 172 42 153 170 89 1 189 246 274 275 237 359 326 301 282 254 237 222 212 206 206 209 210 211 213 217 219 221 220 212 203 202 197 190 188 195 197 189 185 184
189 171 313 155 210 174 159 190 206 149 166 187 166 255 223 341 338 333 321 279 257 234 220 214 212 213 212 217 220 222 225 225 226 219 214 208 208 201 199 201 197 196 193 197
70 79 201 206 274 240 261 212 177 159 210 227 151 272 11 11 354 349 358 351 297 254 244 232 225 220 219 224 228 229 231 233 231 228 223 221 216 213 213 209 202 203 196 198
153 202 146 295 336 349 219 197 202 126 89 204 142 239 34 27 30 19 22 13 4 291 261 250 241 236 235 235 236 237 237 238 235 233 231 227 229 225 217 216 211 212 206 206
101 187 216 186 151 114 185 216 213 197 201 205 213 220 26 14 11 5 8 15 31 30 354 299 266 258 254 251 249 248 245 241 240 241 238 238 235 236 230 222 216 212 211 215
32 240 206 262 308 346 323 235 213 222 238 221 191 215 40 11 9 0 11 18 23 22 21 17 347 301 283 270 263 257 253 249 247 246 245 244 242 241 239 231 223 221 218 219
30 296 143 270 214 229 257 263 270 262 253 258 262 259 359 4 24 16 17 16 13 8 6 7 12 11 330 293 281 275 267 260 254 251 250 249 245 243 239 239 233 226 226 226
319 303 165 265 308 186 259 259 245 203 59 356 246 23 17 20 38 24 13 15 10 5 2 -0 359 359 356 347 302 276 274 272 263 259 256 251 249 248 245 246 243 234 229 230
316 303 294 299 5 243 129 2 99 94 53 23 39 21 354 338 97 48 30 17 11 9 6 3 356 349 348 341 328 301 273 267 267 264 262 259 255 254 250 248 249 244 237 234
216 304 273 230 210 158 118 15 3 21 60 23 22 7 346 334 176 72 19 18 13 12 11 9 3 354 346 342 337 324 310 270 274 275 270 268 264 261 258 253 252 251 247 242
221 220 267 227 235 262 52 332 315 306 148 22 17 7 360 7 80 11 354 1 0 3 4 4 5 1 353 351 347 336 322 299 266 257 256 258 264 268 264 260 256 254 254 253
334 282 227 238 267 61 327 316 333 190 89 7 359 357 358 21 347 319 336 343 347 347 349 352 360 4 3 356 349 346 339 319 301 283 272 266 260 261 263 263 257 252 250 249
336 356 328 329 312 199 335 61 70 78 165 288 306 320 324 312 315 320 325 330 335 336 338 340 343 350 356 355 351 348 343 338 326 309 292 280 271 261 259 262 257 252 248 246
319 166 226 291 287 156 324 132 119 91 258 304 293 307 321 316 313 318 322 324 328 329 330 326 327 329 337 344 346 345 345 340 335 328 319 303 282 267 259 254 256 253 247 244
314 212 233 29 296 180 160 146 168 301 270 267 283 309 320 310 314 317 320 323 327 331 333 329 325 323 321 325 330 333 335 336 334 334 332 327 308 282 263 254 254 254 250 248
223 7 214 267 328 122 191 201 223 304 289 283 294 313 311 308 314 317 324 329 331 335 338 340 339 333 328 321 317 321 324 325 328 331 332 332 326 309 282 262 255 256 253 251
198 206 157 233 217 207 215 219 274 282 279 296 313 315 316 318 321 325 328 331 332 334 335 337 340 340 340 336 328 318 315 316 318 319 325 328 331 326 313 288 270 257 256 251